Multibeam Report for NBP1103


Ship Name: Nathaniel B. Palmer
Chief Scientist: Robinson, Laura
Woods Hole Oceanographic Institution
Source Organization: Marine Geoscience Data System (MGDS)
Start Date: 2011-05-09
End Date: 2011-06-11


View ISO Metadata

Visit the full NCEI Bathymetry Viewer


Multibeam Bathymetry

Cruise Details

Project: Collaborative Research: Historic Perspectives on Climate and Biogeography from Deep-Sea Corals in the Drake Passage
Instrument: Kongsberg EM120

Data Quality

Number of Files: 432
Number of Records: 259125
BATHYMETRY DATA Quantity Percentage
Number of Beams 49492875 100%
Number of Good Beams 40106362 81.03%
Number of Zero Beams 9386513 18.97%
Number of Flagged Beams 0 0%
AMPLITUDE DATA Quantity Percentage
Number of Beams 49492875 100%
Number of Good Beams 40106362 81.03%
Number of Zero Beams 9386513 18.97%
Number of Flagged Beams 0 0%
SIDESCAN DATA Quantity Percentage
Number of Pixels 265344000 100%
Number of Good Pixels 160774513 60.59%
Number of Zero Pixels 0 0%
Number of Flagged Pixels 104569487 39.41%

Navigation Totals

Total Time: 371.5518 hours
Total Track Length: 4210.2908 km
Average Speed: 11.332 km/hr (6.1188 knots)

Cruise Bounds

Northern Extent: -53.57722
Southern Extent: -63.17075
Western Extent: -69.191864
Eastern Extent: -56.309723

Limits

Minimum Sonar Depth 4.78 Maximum Sonar Depth 9.58
Minimum Altitude 0 Maximum Altitude 5584.96
Minimum Depth 70.09 Maximum Depth 6353.4502
Minimum Amplitude 0 Maximum Amplitude 26
Minimum Sidescan 0 Maximum Sidescan 63

File Information

Full Resolution Bathymetry as collected (raw): 429

Files File Size Description
0000_20110510_174240_raw.all.mb56.gz 29.45MB Simrad multibeam vendor format
0001_20110510_184240_raw.all.mb56.gz 30.54MB Simrad multibeam vendor format
0002_20110510_194240_raw.all.mb56.gz 31.12MB Simrad multibeam vendor format
0003_20110510_204240_raw.all.mb56.gz 30.35MB Simrad multibeam vendor format
0004_20110510_214240_raw.all.mb56.gz 30.35MB Simrad multibeam vendor format
0005_20110510_224240_raw.all.mb56.gz 29.96MB Simrad multibeam vendor format
0006_20110510_234240_raw.all.mb56.gz 28.93MB Simrad multibeam vendor format
0007_20110511_004240_raw.all.mb56.gz 28.92MB Simrad multibeam vendor format
0008_20110511_014240_raw.all.mb56.gz 28.21MB Simrad multibeam vendor format
0009_20110511_024240_raw.all.mb56.gz 20.73MB Simrad multibeam vendor format
0010_20110511_034240_raw.all.mb56.gz 18.53MB Simrad multibeam vendor format
0011_20110511_044240_raw.all.mb56.gz 18.22MB Simrad multibeam vendor format
0012_20110511_054240_raw.all.mb56.gz 17.10MB Simrad multibeam vendor format
0013_20110511_064240_raw.all.mb56.gz 3.80MB Simrad multibeam vendor format
0014_20110511_065537_raw.all.mb56.gz 20.99MB Simrad multibeam vendor format
0015_20110511_075537_raw.all.mb56.gz 23.58MB Simrad multibeam vendor format
0016_20110511_085537_raw.all.mb56.gz 17.40MB Simrad multibeam vendor format
0017_20110511_095537_raw.all.mb56.gz 23.07MB Simrad multibeam vendor format
0018_20110511_105537_raw.all.mb56.gz 21.81MB Simrad multibeam vendor format
0019_20110511_115537_raw.all.mb56.gz 20.86MB Simrad multibeam vendor format
0020_20110511_125537_raw.all.mb56.gz 14.46MB Simrad multibeam vendor format
0021_20110511_163342_raw.all.mb56.gz 13.35MB Simrad multibeam vendor format
0022_20110511_172928_raw.all.mb56.gz 11.56MB Simrad multibeam vendor format
0023_20110511_182749_raw.all.mb56.gz 6.32MB Simrad multibeam vendor format
0024_20110511_195948_raw.all.mb56.gz 22.32MB Simrad multibeam vendor format
0025_20110511_205948_raw.all.mb56.gz 23.40MB Simrad multibeam vendor format
0026_20110511_215948_raw.all.mb56.gz 23.80MB Simrad multibeam vendor format
0027_20110511_225948_raw.all.mb56.gz 23.51MB Simrad multibeam vendor format
0028_20110511_235948_raw.all.mb56.gz 4.60MB Simrad multibeam vendor format
0029_20110512_010307_raw.all.mb56.gz 22.08MB Simrad multibeam vendor format
0030_20110512_020307_raw.all.mb56.gz 23.38MB Simrad multibeam vendor format
0031_20110512_030307_raw.all.mb56.gz 22.37MB Simrad multibeam vendor format
0032_20110512_040307_raw.all.mb56.gz 22.53MB Simrad multibeam vendor format
0033_20110512_050307_raw.all.mb56.gz 2.32MB Simrad multibeam vendor format
0034_20110512_054748_raw.all.mb56.gz 21.67MB Simrad multibeam vendor format
0035_20110512_064748_raw.all.mb56.gz 18.69MB Simrad multibeam vendor format
0036_20110512_074748_raw.all.mb56.gz 13.55MB Simrad multibeam vendor format
0037_20110512_084748_raw.all.mb56.gz 2.52MB Simrad multibeam vendor format
0038_20110512_163844_raw.all.mb56.gz 11.42MB Simrad multibeam vendor format
0039_20110512_173844_raw.all.mb56.gz 10.24MB Simrad multibeam vendor format
0040_20110512_183844_raw.all.mb56.gz 9.64MB Simrad multibeam vendor format
0041_20110513_051359_raw.all.mb56.gz 4.85MB Simrad multibeam vendor format
0042_20110513_083834_raw.all.mb56.gz 107.2KB Simrad multibeam vendor format
0043_20110513_114212_raw.all.mb56.gz 10.09MB Simrad multibeam vendor format
0044_20110513_124800_raw.all.mb56.gz 15.09MB Simrad multibeam vendor format
0045_20110513_134800_raw.all.mb56.gz 15.21MB Simrad multibeam vendor format
0046_20110513_144800_raw.all.mb56.gz 13.20MB Simrad multibeam vendor format
0047_20110513_154800_raw.all.mb56.gz 10.88MB Simrad multibeam vendor format
0048_20110513_164800_raw.all.mb56.gz 11.35MB Simrad multibeam vendor format
0049_20110513_174800_raw.all.mb56.gz 2.08MB Simrad multibeam vendor format
0050_20110513_181951_raw.all.mb56.gz 5.47MB Simrad multibeam vendor format
0051_20110513_211642_raw.all.mb56.gz 9.73MB Simrad multibeam vendor format
0052_20110513_221642_raw.all.mb56.gz 5.56MB Simrad multibeam vendor format
0053_20110514_025628_raw.all.mb56.gz 2.52MB Simrad multibeam vendor format
0054_20110514_031406_raw.all.mb56.gz 348.9KB Simrad multibeam vendor format
0055_20110514_031621_raw.all.mb56.gz 9.48MB Simrad multibeam vendor format
0056_20110514_041621_raw.all.mb56.gz 1.21MB Simrad multibeam vendor format
0057_20110514_075858_raw.all.mb56.gz 14.64MB Simrad multibeam vendor format
0058_20110514_085858_raw.all.mb56.gz 18.07MB Simrad multibeam vendor format
0059_20110514_095858_raw.all.mb56.gz 17.27MB Simrad multibeam vendor format
0060_20110514_105858_raw.all.mb56.gz 17.31MB Simrad multibeam vendor format
0061_20110514_115858_raw.all.mb56.gz 16.89MB Simrad multibeam vendor format
0062_20110514_125858_raw.all.mb56.gz 13.59MB Simrad multibeam vendor format
0063_20110514_135858_raw.all.mb56.gz 9.78MB Simrad multibeam vendor format
0064_20110514_145858_raw.all.mb56.gz 8.63MB Simrad multibeam vendor format
0065_20110514_155858_raw.all.mb56.gz 8.60MB Simrad multibeam vendor format
0066_20110514_165858_raw.all.mb56.gz 2.62MB Simrad multibeam vendor format
0067_20110514_171734_raw.all.mb56.gz 8.54MB Simrad multibeam vendor format
0068_20110514_181734_raw.all.mb56.gz 8.64MB Simrad multibeam vendor format
0069_20110514_191734_raw.all.mb56.gz 8.76MB Simrad multibeam vendor format
0070_20110514_201734_raw.all.mb56.gz 8.63MB Simrad multibeam vendor format
0071_20110514_211734_raw.all.mb56.gz 8.50MB Simrad multibeam vendor format
0072_20110514_221734_raw.all.mb56.gz 8.72MB Simrad multibeam vendor format
0073_20110514_231734_raw.all.mb56.gz 8.55MB Simrad multibeam vendor format
0074_20110515_001734_raw.all.mb56.gz 8.59MB Simrad multibeam vendor format
0075_20110515_011734_raw.all.mb56.gz 8.46MB Simrad multibeam vendor format
0076_20110515_021734_raw.all.mb56.gz 8.19MB Simrad multibeam vendor format
0077_20110515_031734_raw.all.mb56.gz 8.32MB Simrad multibeam vendor format
0078_20110515_041734_raw.all.mb56.gz 8.35MB Simrad multibeam vendor format
0079_20110515_051734_raw.all.mb56.gz 8.27MB Simrad multibeam vendor format
0080_20110515_061734_raw.all.mb56.gz 8.04MB Simrad multibeam vendor format
0081_20110515_071734_raw.all.mb56.gz 8.09MB Simrad multibeam vendor format
0082_20110515_081734_raw.all.mb56.gz 8.05MB Simrad multibeam vendor format
0083_20110515_091734_raw.all.mb56.gz 8.23MB Simrad multibeam vendor format
0084_20110515_101734_raw.all.mb56.gz 4.65MB Simrad multibeam vendor format
0085_20110515_105044_raw.all.mb56.gz 8.32MB Simrad multibeam vendor format
0086_20110515_115044_raw.all.mb56.gz 8.46MB Simrad multibeam vendor format
0087_20110515_125044_raw.all.mb56.gz 8.59MB Simrad multibeam vendor format
0088_20110515_135044_raw.all.mb56.gz 7.49MB Simrad multibeam vendor format
0089_20110515_144333_raw.all.mb56.gz 8.33MB Simrad multibeam vendor format
0090_20110515_154333_raw.all.mb56.gz 8.34MB Simrad multibeam vendor format
0091_20110515_164333_raw.all.mb56.gz 8.25MB Simrad multibeam vendor format
0092_20110515_174333_raw.all.mb56.gz 8.15MB Simrad multibeam vendor format
0093_20110515_184333_raw.all.mb56.gz 8.99MB Simrad multibeam vendor format
0094_20110515_195211_raw.all.mb56.gz 1.18MB Simrad multibeam vendor format
0095_20110516_090442_raw.all.mb56.gz 6.37MB Simrad multibeam vendor format
0096_20110516_193203_raw.all.mb56.gz 8.74MB Simrad multibeam vendor format
0097_20110516_203203_raw.all.mb56.gz 8.75MB Simrad multibeam vendor format
0098_20110516_213203_raw.all.mb56.gz 8.59MB Simrad multibeam vendor format
0099_20110516_223203_raw.all.mb56.gz 8.95MB Simrad multibeam vendor format
0100_20110516_233203_raw.all.mb56.gz 6.45MB Simrad multibeam vendor format
0101_20110517_065644_raw.all.mb56.gz 3.74MB Simrad multibeam vendor format
0102_20110517_105233_raw.all.mb56.gz 8.73MB Simrad multibeam vendor format
0103_20110517_115233_raw.all.mb56.gz 8.38MB Simrad multibeam vendor format
0104_20110517_125233_raw.all.mb56.gz 6.24MB Simrad multibeam vendor format
0106_20110517_165304_raw.all.mb56.gz 3.13MB Simrad multibeam vendor format
0107_20110517_171542_raw.all.mb56.gz 6.73MB Simrad multibeam vendor format
0108_20110518_014229_raw.all.mb56.gz 9.15MB Simrad multibeam vendor format
0109_20110518_024229_raw.all.mb56.gz 0.87MB Simrad multibeam vendor format
0110_20110518_041108_raw.all.mb56.gz 13.39MB Simrad multibeam vendor format
0111_20110518_051108_raw.all.mb56.gz 10.73MB Simrad multibeam vendor format
0112_20110518_061548_raw.all.mb56.gz 13.03MB Simrad multibeam vendor format
0113_20110518_071548_raw.all.mb56.gz 12.55MB Simrad multibeam vendor format
0114_20110518_081548_raw.all.mb56.gz 95.0KB Simrad multibeam vendor format
0115_20110518_123252_raw.all.mb56.gz 7.33MB Simrad multibeam vendor format
0116_20110519_101512_raw.all.mb56.gz 3.71MB Simrad multibeam vendor format
0117_20110519_131934_raw.all.mb56.gz 4.67MB Simrad multibeam vendor format
0118_20110520_025849_raw.all.mb56.gz 186.0KB Simrad multibeam vendor format
0119_20110520_030250_raw.all.mb56.gz 8.67MB Simrad multibeam vendor format
0120_20110520_040250_raw.all.mb56.gz 8.34MB Simrad multibeam vendor format
0121_20110520_050250_raw.all.mb56.gz 8.41MB Simrad multibeam vendor format
0122_20110520_060250_raw.all.mb56.gz 1.83MB Simrad multibeam vendor format
0123_20110520_185427_raw.all.mb56.gz 8.99MB Simrad multibeam vendor format
0124_20110520_195427_raw.all.mb56.gz 8.72MB Simrad multibeam vendor format
0125_20110520_205427_raw.all.mb56.gz 3.19MB Simrad multibeam vendor format
0126_20110521_035324_raw.all.mb56.gz 10.06MB Simrad multibeam vendor format
0127_20110521_045324_raw.all.mb56.gz 15.53MB Simrad multibeam vendor format
0128_20110521_055324_raw.all.mb56.gz 18.74MB Simrad multibeam vendor format
0129_20110521_065324_raw.all.mb56.gz 19.59MB Simrad multibeam vendor format
0130_20110521_075324_raw.all.mb56.gz 20.45MB Simrad multibeam vendor format
0131_20110521_085324_raw.all.mb56.gz 22.06MB Simrad multibeam vendor format
0132_20110521_095324_raw.all.mb56.gz 13.70MB Simrad multibeam vendor format
0133_20110521_104132_raw.all.mb56.gz 12.26MB Simrad multibeam vendor format
0134_20110521_114132_raw.all.mb56.gz 10.94MB Simrad multibeam vendor format
0135_20110521_124132_raw.all.mb56.gz 11.25MB Simrad multibeam vendor format
0136_20110521_134132_raw.all.mb56.gz 11.08MB Simrad multibeam vendor format
0137_20110521_144132_raw.all.mb56.gz 11.86MB Simrad multibeam vendor format
0138_20110521_154132_raw.all.mb56.gz 11.47MB Simrad multibeam vendor format
0139_20110521_164132_raw.all.mb56.gz 10.93MB Simrad multibeam vendor format
0140_20110521_174132_raw.all.mb56.gz 9.01MB Simrad multibeam vendor format
0141_20110521_205235_raw.all.mb56.gz 12.61MB Simrad multibeam vendor format
0142_20110521_215235_raw.all.mb56.gz 12.81MB Simrad multibeam vendor format
0143_20110521_225235_raw.all.mb56.gz 13.45MB Simrad multibeam vendor format
0144_20110521_235235_raw.all.mb56.gz 14.37MB Simrad multibeam vendor format
0145_20110522_005235_raw.all.mb56.gz 11.01MB Simrad multibeam vendor format
0146_20110522_015235_raw.all.mb56.gz 14.49MB Simrad multibeam vendor format
0147_20110522_025235_raw.all.mb56.gz 15.94MB Simrad multibeam vendor format
0148_20110522_035235_raw.all.mb56.gz 9.94MB Simrad multibeam vendor format
0149_20110522_042931_raw.all.mb56.gz 13.93MB Simrad multibeam vendor format
0150_20110522_052931_raw.all.mb56.gz 14.55MB Simrad multibeam vendor format
0151_20110522_062931_raw.all.mb56.gz 18.24MB Simrad multibeam vendor format
0152_20110522_072931_raw.all.mb56.gz 17.91MB Simrad multibeam vendor format
0153_20110522_082931_raw.all.mb56.gz 17.95MB Simrad multibeam vendor format
0154_20110522_092931_raw.all.mb56.gz 18.11MB Simrad multibeam vendor format
0155_20110522_102931_raw.all.mb56.gz 17.83MB Simrad multibeam vendor format
0156_20110522_112931_raw.all.mb56.gz 17.54MB Simrad multibeam vendor format
0157_20110522_122931_raw.all.mb56.gz 18.02MB Simrad multibeam vendor format
0158_20110522_132931_raw.all.mb56.gz 18.50MB Simrad multibeam vendor format
0159_20110522_142931_raw.all.mb56.gz 17.94MB Simrad multibeam vendor format
0160_20110522_152931_raw.all.mb56.gz 18.03MB Simrad multibeam vendor format
0161_20110522_162931_raw.all.mb56.gz 18.15MB Simrad multibeam vendor format
0162_20110522_172931_raw.all.mb56.gz 17.65MB Simrad multibeam vendor format
0163_20110522_182931_raw.all.mb56.gz 17.90MB Simrad multibeam vendor format
0164_20110522_192931_raw.all.mb56.gz 18.72MB Simrad multibeam vendor format
0165_20110522_202931_raw.all.mb56.gz 18.58MB Simrad multibeam vendor format
0166_20110522_212931_raw.all.mb56.gz 17.76MB Simrad multibeam vendor format
0167_20110522_222933_raw.all.mb56.gz 17.65MB Simrad multibeam vendor format
0168_20110522_232933_raw.all.mb56.gz 20.63MB Simrad multibeam vendor format
0169_20110523_002933_raw.all.mb56.gz 17.59MB Simrad multibeam vendor format
0170_20110523_012933_raw.all.mb56.gz 17.32MB Simrad multibeam vendor format
0171_20110523_022933_raw.all.mb56.gz 21.95MB Simrad multibeam vendor format
0172_20110523_032933_raw.all.mb56.gz 13.90MB Simrad multibeam vendor format
0173_20110523_042933_raw.all.mb56.gz 9.81MB Simrad multibeam vendor format
0174_20110523_052933_raw.all.mb56.gz 1.29MB Simrad multibeam vendor format
0175_20110523_134802_raw.all.mb56.gz 2.53MB Simrad multibeam vendor format
0176_20110523_140321_raw.all.mb56.gz 9.34MB Simrad multibeam vendor format
0177_20110523_150321_raw.all.mb56.gz 8.34MB Simrad multibeam vendor format
0178_20110523_160321_raw.all.mb56.gz 2.08MB Simrad multibeam vendor format
0179_20110523_201330_raw.all.mb56.gz 8.35MB Simrad multibeam vendor format
0180_20110523_211331_raw.all.mb56.gz 8.28MB Simrad multibeam vendor format
0181_20110523_221330_raw.all.mb56.gz 8.35MB Simrad multibeam vendor format
0182_20110523_231331_raw.all.mb56.gz 3.24MB Simrad multibeam vendor format
0183_20110523_233657_raw.all.mb56.gz 8.46MB Simrad multibeam vendor format
0184_20110524_003657_raw.all.mb56.gz 8.57MB Simrad multibeam vendor format
0185_20110524_013657_raw.all.mb56.gz 8.57MB Simrad multibeam vendor format
0186_20110524_023657_raw.all.mb56.gz 8.37MB Simrad multibeam vendor format
0187_20110524_033657_raw.all.mb56.gz 8.38MB Simrad multibeam vendor format
0188_20110524_043657_raw.all.mb56.gz 8.46MB Simrad multibeam vendor format
0189_20110524_053657_raw.all.mb56.gz 8.23MB Simrad multibeam vendor format
0190_20110524_063657_raw.all.mb56.gz 8.15MB Simrad multibeam vendor format
0191_20110524_073657_raw.all.mb56.gz 8.22MB Simrad multibeam vendor format
0192_20110524_083657_raw.all.mb56.gz 8.52MB Simrad multibeam vendor format
0193_20110524_093657_raw.all.mb56.gz 8.52MB Simrad multibeam vendor format
0194_20110524_103657_raw.all.mb56.gz 8.83MB Simrad multibeam vendor format
0195_20110524_113657_raw.all.mb56.gz 8.92MB Simrad multibeam vendor format
0196_20110524_123657_raw.all.mb56.gz 4.15MB Simrad multibeam vendor format
0197_20110524_130330_raw.all.mb56.gz 9.95MB Simrad multibeam vendor format
0198_20110524_140330_raw.all.mb56.gz 0.70MB Simrad multibeam vendor format
0199_20110524_153813_raw.all.mb56.gz 3.30MB Simrad multibeam vendor format
0200_20110524_182047_raw.all.mb56.gz 1.65MB Simrad multibeam vendor format
0201_20110524_210622_raw.all.mb56.gz 8.84MB Simrad multibeam vendor format
0202_20110524_220622_raw.all.mb56.gz 8.56MB Simrad multibeam vendor format
0203_20110524_230622_raw.all.mb56.gz 8.53MB Simrad multibeam vendor format
0204_20110525_000622_raw.all.mb56.gz 9.16MB Simrad multibeam vendor format
0205_20110525_010622_raw.all.mb56.gz 9.23MB Simrad multibeam vendor format
0206_20110525_020622_raw.all.mb56.gz 8.87MB Simrad multibeam vendor format
0207_20110525_030622_raw.all.mb56.gz 8.63MB Simrad multibeam vendor format
0208_20110525_040622_raw.all.mb56.gz 8.71MB Simrad multibeam vendor format
0209_20110525_050622_raw.all.mb56.gz 1.58MB Simrad multibeam vendor format
0210_20110525_083101_raw.all.mb56.gz 8.56MB Simrad multibeam vendor format
0211_20110525_093101_raw.all.mb56.gz 2.62MB Simrad multibeam vendor format
0212_20110526_013217_raw.all.mb56.gz 5.82MB Simrad multibeam vendor format
0213_20110526_041341_raw.all.mb56.gz 9.41MB Simrad multibeam vendor format
0214_20110526_051341_raw.all.mb56.gz 7.92MB Simrad multibeam vendor format
0215_20110526_091042_raw.all.mb56.gz 3.78MB Simrad multibeam vendor format
0216_20110526_170628_raw.all.mb56.gz 9.37MB Simrad multibeam vendor format
0217_20110526_180628_raw.all.mb56.gz 8.96MB Simrad multibeam vendor format
0218_20110526_190628_raw.all.mb56.gz 8.73MB Simrad multibeam vendor format
0219_20110526_200628_raw.all.mb56.gz 8.57MB Simrad multibeam vendor format
0220_20110526_210628_raw.all.mb56.gz 8.77MB Simrad multibeam vendor format
0221_20110526_220628_raw.all.mb56.gz 9.03MB Simrad multibeam vendor format
0222_20110526_230628_raw.all.mb56.gz 9.15MB Simrad multibeam vendor format
0223_20110527_000628_raw.all.mb56.gz 8.95MB Simrad multibeam vendor format
0224_20110527_010628_raw.all.mb56.gz 8.96MB Simrad multibeam vendor format
0225_20110527_020628_raw.all.mb56.gz 9.04MB Simrad multibeam vendor format
0226_20110527_030628_raw.all.mb56.gz 8.83MB Simrad multibeam vendor format
0227_20110527_040628_raw.all.mb56.gz 8.70MB Simrad multibeam vendor format
0228_20110527_050628_raw.all.mb56.gz 9.03MB Simrad multibeam vendor format
0229_20110527_060628_raw.all.mb56.gz 9.11MB Simrad multibeam vendor format
0230_20110527_070628_raw.all.mb56.gz 9.08MB Simrad multibeam vendor format
0231_20110527_080628_raw.all.mb56.gz 9.04MB Simrad multibeam vendor format
0232_20110527_090628_raw.all.mb56.gz 8.83MB Simrad multibeam vendor format
0233_20110527_100628_raw.all.mb56.gz 8.70MB Simrad multibeam vendor format
0234_20110527_110628_raw.all.mb56.gz 8.75MB Simrad multibeam vendor format
0235_20110527_120628_raw.all.mb56.gz 1.38MB Simrad multibeam vendor format
0236_20110527_224153_raw.all.mb56.gz 9.46MB Simrad multibeam vendor format
0237_20110527_234154_raw.all.mb56.gz 9.06MB Simrad multibeam vendor format
0238_20110528_004154_raw.all.mb56.gz 8.47MB Simrad multibeam vendor format
0239_20110528_014153_raw.all.mb56.gz 0.91MB Simrad multibeam vendor format
0240_20110528_055028_raw.all.mb56.gz 8.66MB Simrad multibeam vendor format
0241_20110528_065028_raw.all.mb56.gz 8.76MB Simrad multibeam vendor format
0242_20110528_075028_raw.all.mb56.gz 8.80MB Simrad multibeam vendor format
0243_20110528_085028_raw.all.mb56.gz 8.91MB Simrad multibeam vendor format
0244_20110528_095028_raw.all.mb56.gz 8.81MB Simrad multibeam vendor format
0245_20110528_105028_raw.all.mb56.gz 8.87MB Simrad multibeam vendor format
0246_20110528_115028_raw.all.mb56.gz 9.02MB Simrad multibeam vendor format
0247_20110528_125028_raw.all.mb56.gz 9.18MB Simrad multibeam vendor format
0248_20110528_135028_raw.all.mb56.gz 3.42MB Simrad multibeam vendor format
0249_20110528_141314_raw.all.mb56.gz 9.16MB Simrad multibeam vendor format
0250_20110528_151314_raw.all.mb56.gz 9.13MB Simrad multibeam vendor format
0251_20110528_161314_raw.all.mb56.gz 9.16MB Simrad multibeam vendor format
0252_20110528_171314_raw.all.mb56.gz 8.93MB Simrad multibeam vendor format
0253_20110528_181314_raw.all.mb56.gz 8.83MB Simrad multibeam vendor format
0254_20110528_191314_raw.all.mb56.gz 8.83MB Simrad multibeam vendor format
0255_20110528_201314_raw.all.mb56.gz 2.73MB Simrad multibeam vendor format
0256_20110528_203223_raw.all.mb56.gz 8.90MB Simrad multibeam vendor format
0257_20110528_213223_raw.all.mb56.gz 8.84MB Simrad multibeam vendor format
0258_20110528_223223_raw.all.mb56.gz 9.01MB Simrad multibeam vendor format
0259_20110528_233223_raw.all.mb56.gz 8.95MB Simrad multibeam vendor format
0260_20110529_003223_raw.all.mb56.gz 12.56MB Simrad multibeam vendor format
0261_20110529_013223_raw.all.mb56.gz 10.75MB Simrad multibeam vendor format
0262_20110529_042444_raw.all.mb56.gz 13.97MB Simrad multibeam vendor format
0263_20110529_052444_raw.all.mb56.gz 3.14MB Simrad multibeam vendor format
0264_20110529_055004_raw.all.mb56.gz 9.51MB Simrad multibeam vendor format
0265_20110529_065004_raw.all.mb56.gz 9.69MB Simrad multibeam vendor format
0266_20110529_075004_raw.all.mb56.gz 9.84MB Simrad multibeam vendor format
0267_20110529_085004_raw.all.mb56.gz 9.71MB Simrad multibeam vendor format
0268_20110529_095004_raw.all.mb56.gz 9.90MB Simrad multibeam vendor format
0269_20110529_105004_raw.all.mb56.gz 9.76MB Simrad multibeam vendor format
0270_20110529_115004_raw.all.mb56.gz 9.50MB Simrad multibeam vendor format
0271_20110529_125004_raw.all.mb56.gz 9.81MB Simrad multibeam vendor format
0272_20110529_135004_raw.all.mb56.gz 11.61MB Simrad multibeam vendor format
0273_20110529_145004_raw.all.mb56.gz 11.36MB Simrad multibeam vendor format
0274_20110529_155004_raw.all.mb56.gz 1.39MB Simrad multibeam vendor format
0275_20110529_155752_raw.all.mb56.gz 8.49MB Simrad multibeam vendor format
0276_20110529_180220_raw.all.mb56.gz 11.04MB Simrad multibeam vendor format
0277_20110529_190220_raw.all.mb56.gz 9.26MB Simrad multibeam vendor format
0278_20110529_200220_raw.all.mb56.gz 8.40MB Simrad multibeam vendor format
0279_20110529_210220_raw.all.mb56.gz 9.87MB Simrad multibeam vendor format
0280_20110529_220224_raw.all.mb56.gz 8.28MB Simrad multibeam vendor format
0281_20110529_230224_raw.all.mb56.gz 7.98MB Simrad multibeam vendor format
0282_20110530_000224_raw.all.mb56.gz 8.17MB Simrad multibeam vendor format
0283_20110530_010224_raw.all.mb56.gz 8.61MB Simrad multibeam vendor format
0284_20110530_020224_raw.all.mb56.gz 9.06MB Simrad multibeam vendor format
0285_20110530_030224_raw.all.mb56.gz 9.56MB Simrad multibeam vendor format
0286_20110530_040225_raw.all.mb56.gz 12.21MB Simrad multibeam vendor format
0287_20110530_050225_raw.all.mb56.gz 10.23MB Simrad multibeam vendor format
0288_20110530_100326_raw.all.mb56.gz 7.09MB Simrad multibeam vendor format
0289_20110530_123454_raw.all.mb56.gz 10.62MB Simrad multibeam vendor format
0290_20110530_203055_raw.all.mb56.gz 15.90MB Simrad multibeam vendor format
0291_20110530_213055_raw.all.mb56.gz 17.78MB Simrad multibeam vendor format
0292_20110530_223055_raw.all.mb56.gz 17.14MB Simrad multibeam vendor format
0293_20110530_233055_raw.all.mb56.gz 17.40MB Simrad multibeam vendor format
0294_20110531_003055_raw.all.mb56.gz 6.66MB Simrad multibeam vendor format
0295_20110531_123714_raw.all.mb56.gz 11.48MB Simrad multibeam vendor format
0296_20110601_081243_raw.all.mb56.gz 9.47MB Simrad multibeam vendor format
0297_20110601_091243_raw.all.mb56.gz 8.84MB Simrad multibeam vendor format
0298_20110601_101243_raw.all.mb56.gz 8.54MB Simrad multibeam vendor format
0299_20110601_111243_raw.all.mb56.gz 8.05MB Simrad multibeam vendor format
0300_20110601_121243_raw.all.mb56.gz 9.03MB Simrad multibeam vendor format
0301_20110601_131243_raw.all.mb56.gz 8.70MB Simrad multibeam vendor format
0302_20110601_141243_raw.all.mb56.gz 8.68MB Simrad multibeam vendor format
0303_20110601_151243_raw.all.mb56.gz 8.99MB Simrad multibeam vendor format
0304_20110601_161243_raw.all.mb56.gz 8.79MB Simrad multibeam vendor format
0305_20110601_171243_raw.all.mb56.gz 8.75MB Simrad multibeam vendor format
0306_20110601_181242_raw.all.mb56.gz 8.90MB Simrad multibeam vendor format
0307_20110601_191242_raw.all.mb56.gz 9.23MB Simrad multibeam vendor format
0308_20110601_201242_raw.all.mb56.gz 10.01MB Simrad multibeam vendor format
0309_20110601_211242_raw.all.mb56.gz 9.34MB Simrad multibeam vendor format
0310_20110601_221242_raw.all.mb56.gz 8.43MB Simrad multibeam vendor format
0311_20110601_231242_raw.all.mb56.gz 8.50MB Simrad multibeam vendor format
0312_20110602_001242_raw.all.mb56.gz 8.77MB Simrad multibeam vendor format
0313_20110602_011242_raw.all.mb56.gz 6.99MB Simrad multibeam vendor format
0314_20110602_124238_raw.all.mb56.gz 8.01MB Simrad multibeam vendor format
0315_20110602_143152_raw.all.mb56.gz 476.7KB Simrad multibeam vendor format
0316_20110602_184556_raw.all.mb56.gz 3.95MB Simrad multibeam vendor format
0317_20110602_191136_raw.all.mb56.gz 0.87MB Simrad multibeam vendor format
0318_20110602_194224_raw.all.mb56.gz 7.00MB Simrad multibeam vendor format
0319_20110602_212023_raw.all.mb56.gz 2.42MB Simrad multibeam vendor format
0320_20110603_100356_raw.all.mb56.gz 10.00MB Simrad multibeam vendor format
0321_20110603_110356_raw.all.mb56.gz 12.87MB Simrad multibeam vendor format
0322_20110603_120356_raw.all.mb56.gz 8.21MB Simrad multibeam vendor format
0323_20110603_153912_raw.all.mb56.gz 2.03MB Simrad multibeam vendor format
0324_20110603_155825_raw.all.mb56.gz 2.22MB Simrad multibeam vendor format
0325_20110603_192722_raw.all.mb56.gz 2.43MB Simrad multibeam vendor format
0326_20110603_222615_raw.all.mb56.gz 4.66MB Simrad multibeam vendor format
0327_20110604_055606_raw.all.mb56.gz 9.69MB Simrad multibeam vendor format
0328_20110604_065606_raw.all.mb56.gz 9.04MB Simrad multibeam vendor format
0329_20110604_075606_raw.all.mb56.gz 8.83MB Simrad multibeam vendor format
0330_20110604_085606_raw.all.mb56.gz 8.50MB Simrad multibeam vendor format
0331_20110604_095606_raw.all.mb56.gz 8.46MB Simrad multibeam vendor format
0332_20110604_105606_raw.all.mb56.gz 1.48MB Simrad multibeam vendor format
0333_20110604_110618_raw.all.mb56.gz 8.57MB Simrad multibeam vendor format
0334_20110604_120617_raw.all.mb56.gz 8.40MB Simrad multibeam vendor format
0335_20110604_130617_raw.all.mb56.gz 8.24MB Simrad multibeam vendor format
0336_20110604_140617_raw.all.mb56.gz 8.17MB Simrad multibeam vendor format
0337_20110604_150617_raw.all.mb56.gz 8.21MB Simrad multibeam vendor format
0338_20110604_160617_raw.all.mb56.gz 8.45MB Simrad multibeam vendor format
0339_20110604_170617_raw.all.mb56.gz 8.29MB Simrad multibeam vendor format
0340_20110604_180617_raw.all.mb56.gz 8.16MB Simrad multibeam vendor format
0341_20110604_190617_raw.all.mb56.gz 8.12MB Simrad multibeam vendor format
0342_20110604_200617_raw.all.mb56.gz 8.33MB Simrad multibeam vendor format
0343_20110604_210617_raw.all.mb56.gz 8.31MB Simrad multibeam vendor format
0344_20110604_220617_raw.all.mb56.gz 8.65MB Simrad multibeam vendor format
0345_20110604_230617_raw.all.mb56.gz 8.19MB Simrad multibeam vendor format
0346_20110605_000617_raw.all.mb56.gz 5.35MB Simrad multibeam vendor format
0347_20110605_004204_raw.all.mb56.gz 7.94MB Simrad multibeam vendor format
0348_20110605_014204_raw.all.mb56.gz 8.29MB Simrad multibeam vendor format
0349_20110605_024204_raw.all.mb56.gz 14.17MB Simrad multibeam vendor format
0350_20110605_034204_raw.all.mb56.gz 9.19MB Simrad multibeam vendor format
0351_20110605_044204_raw.all.mb56.gz 11.84MB Simrad multibeam vendor format
0352_20110605_054204_raw.all.mb56.gz 8.86MB Simrad multibeam vendor format
0353_20110605_064204_raw.all.mb56.gz 8.12MB Simrad multibeam vendor format
0354_20110605_074204_raw.all.mb56.gz 8.09MB Simrad multibeam vendor format
0355_20110605_084204_raw.all.mb56.gz 8.73MB Simrad multibeam vendor format
0356_20110605_094204_raw.all.mb56.gz 10.05MB Simrad multibeam vendor format
0357_20110605_104204_raw.all.mb56.gz 10.25MB Simrad multibeam vendor format
0358_20110605_114204_raw.all.mb56.gz 9.49MB Simrad multibeam vendor format
0359_20110605_124204_raw.all.mb56.gz 8.73MB Simrad multibeam vendor format
0360_20110605_134204_raw.all.mb56.gz 8.15MB Simrad multibeam vendor format
0361_20110605_144204_raw.all.mb56.gz 8.53MB Simrad multibeam vendor format
0362_20110605_154203_raw.all.mb56.gz 8.68MB Simrad multibeam vendor format
0363_20110605_164023_raw.all.mb56.gz 8.88MB Simrad multibeam vendor format
0364_20110605_174023_raw.all.mb56.gz 9.29MB Simrad multibeam vendor format
0365_20110605_184023_raw.all.mb56.gz 8.92MB Simrad multibeam vendor format
0366_20110605_194023_raw.all.mb56.gz 8.89MB Simrad multibeam vendor format
0367_20110605_204023_raw.all.mb56.gz 7.79MB Simrad multibeam vendor format
0368_20110605_214023_raw.all.mb56.gz 8.39MB Simrad multibeam vendor format
0369_20110605_224024_raw.all.mb56.gz 8.01MB Simrad multibeam vendor format
0370_20110605_234025_raw.all.mb56.gz 9.30MB Simrad multibeam vendor format
0371_20110606_004025_raw.all.mb56.gz 10.47MB Simrad multibeam vendor format
0372_20110606_014025_raw.all.mb56.gz 9.25MB Simrad multibeam vendor format
0373_20110606_024026_raw.all.mb56.gz 9.37MB Simrad multibeam vendor format
0374_20110606_034026_raw.all.mb56.gz 8.48MB Simrad multibeam vendor format
0375_20110606_044026_raw.all.mb56.gz 9.33MB Simrad multibeam vendor format
0376_20110606_054026_raw.all.mb56.gz 10.59MB Simrad multibeam vendor format
0377_20110606_064027_raw.all.mb56.gz 8.80MB Simrad multibeam vendor format
0378_20110606_074027_raw.all.mb56.gz 8.77MB Simrad multibeam vendor format
0379_20110606_084027_raw.all.mb56.gz 4.39MB Simrad multibeam vendor format
0380_20110606_113110_raw.all.mb56.gz 8.38MB Simrad multibeam vendor format
0381_20110606_123110_raw.all.mb56.gz 9.03MB Simrad multibeam vendor format
0382_20110606_133110_raw.all.mb56.gz 6.81MB Simrad multibeam vendor format
0383_20110606_163146_raw.all.mb56.gz 0.59MB Simrad multibeam vendor format
0384_20110606_165647_raw.all.mb56.gz 5.37MB Simrad multibeam vendor format
0385_20110606_194514_raw.all.mb56.gz 9.10MB Simrad multibeam vendor format
0386_20110606_211055_raw.all.mb56.gz 11.94MB Simrad multibeam vendor format
0387_20110606_221055_raw.all.mb56.gz 11.95MB Simrad multibeam vendor format
0388_20110606_231055_raw.all.mb56.gz 12.21MB Simrad multibeam vendor format
0389_20110607_001055_raw.all.mb56.gz 11.80MB Simrad multibeam vendor format
0390_20110607_011055_raw.all.mb56.gz 243.4KB Simrad multibeam vendor format
0391_20110607_061841_raw.all.mb56.gz 11.30MB Simrad multibeam vendor format
0392_20110607_071841_raw.all.mb56.gz 164.4KB Simrad multibeam vendor format
0393_20110607_111715_raw.all.mb56.gz 7.26MB Simrad multibeam vendor format
0394_20110607_175313_raw.all.mb56.gz 9.59MB Simrad multibeam vendor format
0395_20110607_185313_raw.all.mb56.gz 8.89MB Simrad multibeam vendor format
0396_20110607_195313_raw.all.mb56.gz 10.12MB Simrad multibeam vendor format
0397_20110608_013837_raw.all.mb56.gz 2.02MB Simrad multibeam vendor format
0398_20110608_064844_raw.all.mb56.gz 9.89MB Simrad multibeam vendor format
0399_20110608_074844_raw.all.mb56.gz 5.26MB Simrad multibeam vendor format
0400_20110608_152153_raw.all.mb56.gz 11.72MB Simrad multibeam vendor format
0401_20110608_162153_raw.all.mb56.gz 6.39MB Simrad multibeam vendor format
0402_20110609_010358_raw.all.mb56.gz 8.96MB Simrad multibeam vendor format
0403_20110609_020358_raw.all.mb56.gz 8.31MB Simrad multibeam vendor format
0404_20110609_030358_raw.all.mb56.gz 1.20MB Simrad multibeam vendor format
0405_20110609_072626_raw.all.mb56.gz 9.15MB Simrad multibeam vendor format
0406_20110609_082626_raw.all.mb56.gz 7.87MB Simrad multibeam vendor format
0407_20110609_085937_raw.all.mb56.gz 15.82MB Simrad multibeam vendor format
0408_20110609_095937_raw.all.mb56.gz 15.98MB Simrad multibeam vendor format
0409_20110609_105937_raw.all.mb56.gz 17.53MB Simrad multibeam vendor format
0410_20110609_115937_raw.all.mb56.gz 19.68MB Simrad multibeam vendor format
0411_20110609_125937_raw.all.mb56.gz 17.44MB Simrad multibeam vendor format
0412_20110609_135937_raw.all.mb56.gz 18.05MB Simrad multibeam vendor format
0413_20110609_145937_raw.all.mb56.gz 13.44MB Simrad multibeam vendor format
0414_20110609_155937_raw.all.mb56.gz 10.24MB Simrad multibeam vendor format
0415_20110609_165937_raw.all.mb56.gz 8.84MB Simrad multibeam vendor format
0416_20110609_175545_raw.all.mb56.gz 11.79MB Simrad multibeam vendor format
0417_20110609_185545_raw.all.mb56.gz 12.51MB Simrad multibeam vendor format
0418_20110609_195545_raw.all.mb56.gz 11.57MB Simrad multibeam vendor format
0419_20110609_205545_raw.all.mb56.gz 9.86MB Simrad multibeam vendor format
0420_20110609_215545_raw.all.mb56.gz 10.99MB Simrad multibeam vendor format
0421_20110609_225545_raw.all.mb56.gz 11.54MB Simrad multibeam vendor format
0422_20110609_235545_raw.all.mb56.gz 9.12MB Simrad multibeam vendor format
0423_20110610_005545_raw.all.mb56.gz 7.83MB Simrad multibeam vendor format
0424_20110610_014839_raw.all.mb56.gz 41.7KB Simrad multibeam vendor format
0425_20110610_014858_raw.all.mb56.gz 109.5KB Simrad multibeam vendor format
0426_20110610_014941_raw.all.mb56.gz 9.11MB Simrad multibeam vendor format
0427_20110610_024941_raw.all.mb56.gz 8.67MB Simrad multibeam vendor format
0428_20110610_034941_raw.all.mb56.gz 9.81MB Simrad multibeam vendor format
0429_20110610_044941_raw.all.mb56.gz 3.68MB Simrad multibeam vendor format

Metadata Files: 3

Files File Size Description
NBP1103_Multibeam.xml NGDC created ISO metadata
NBP1103.xml 39.9KB XML metadata file
mb_bag_info.tar.gz 12.2KB Additional cruise information